When you browse on this site, cookies collect data to enhance your experience and personalize the content and advertising you see.
Visit our Privacy Policy to learn more. By continuing to use the site, you agree to this use of cookies and data.
  • Em Portugal
  • Lista de países
  • Para 7 dias
  • Temperatura da água
  • Mapa do tempo
  • Widgets de tempo
  • user-avatar
    Iniciar Sessão

    Previsão horária em Karak

    Hoje, 26 Agosto, Segunda-feira

    Tempo Temperatura Precipitação Vento Pressão Humidade
    00:00 +22°C° 0 mm 1 m/s 679 mmHg 53%
    01:00 +21°C° 0 mm 1 m/s 678 mmHg 53%
    02:00 +20°C° 0 mm 1 m/s 678 mmHg 56%
    03:00 +20°C° 0 mm 1 m/s 678 mmHg 55%
    04:00 +20°C° 0 mm 1 m/s 678 mmHg 54%
    05:00 +20°C° 0 mm 1 m/s 679 mmHg 53%
    06:00 +22°C° 0 mm 1 m/s 679 mmHg 45%
    07:00 +25°C° 0 mm 1 m/s 680 mmHg 37%
    08:00 +27°C° 0 mm 2 m/s 681 mmHg 29%
    09:00 +29°C° 0 mm 2 m/s 681 mmHg 26%
    10:00 +31°C° 0 mm 2 m/s 681 mmHg 24%
    11:00 +34°C° 0 mm 2 m/s 681 mmHg 21%
    12:00 +35°C° 0 mm 3 m/s 681 mmHg 20%
    13:00 +36°C° 0 mm 3 m/s 681 mmHg 18%
    14:00 +36°C° 0 mm 3 m/s 680 mmHg 17%
    15:00 +36°C° 0 mm 4 m/s 680 mmHg 18%
    16:00 +35°C° 0 mm 4 m/s 680 mmHg 18%
    17:00 +35°C° 0 mm 5 m/s 680 mmHg 19%
    18:00 +32°C° 0 mm 4 m/s 679 mmHg 29%
    19:00 +28°C° 0 mm 3 m/s 679 mmHg 39%
    20:00 +25°C° 0 mm 1 m/s 679 mmHg 49%
    21:00 +24°C° 0 mm 2 m/s 679 mmHg 52%
    22:00 +24°C° 0 mm 2 m/s 679 mmHg 54%
    23:00 +23°C° 0 mm 2 m/s 679 mmHg 56%

    Amanhã, 27 Agosto, Terça-feira

    Tempo Temperatura Precipitação Vento Pressão Humidade
    00:00 +23°C° 0 mm 2 m/s 679 mmHg 55%
    01:00 +21°C° 0 mm 2 m/s 678 mmHg 53%
    02:00 +21°C° 0 mm 2 m/s 678 mmHg 52%
    03:00 +21°C° 0 mm 1 m/s 678 mmHg 54%
    04:00 +20°C° 0 mm 1 m/s 678 mmHg 56%
    05:00 +20°C° 0 mm 1 m/s 678 mmHg 57%
    06:00 +22°C° 0 mm 1 m/s 679 mmHg 50%
    07:00 +25°C° 0 mm 1 m/s 679 mmHg 42%
    08:00 +27°C° 0 mm 1 m/s 680 mmHg 34%
    09:00 +29°C° 0 mm 2 m/s 680 mmHg 30%
    10:00 +31°C° 0 mm 2 m/s 680 mmHg 27%
    11:00 +34°C° 0 mm 2 m/s 681 mmHg 24%
    12:00 +35°C° 0 mm 3 m/s 680 mmHg 22%
    13:00 +36°C° 0 mm 3 m/s 680 mmHg 21%
    14:00 +37°C° 0 mm 4 m/s 679 mmHg 20%
    15:00 +35°C° 0 mm 4 m/s 679 mmHg 22%
    16:00 +34°C° 0 mm 5 m/s 679 mmHg 23%
    17:00 +33°C° 0 mm 6 m/s 679 mmHg 25%
    18:00 +30°C° 0 mm 5 m/s 679 mmHg 35%
    19:00 +27°C° 0 mm 4 m/s 678 mmHg 45%
    20:00 +25°C° 0 mm 3 m/s 678 mmHg 56%
    21:00 +24°C° 0 mm 3 m/s 678 mmHg 59%
    22:00 +22°C° 0 mm 3 m/s 679 mmHg 63%
    23:00 +21°C° 0 mm 2 m/s 679 mmHg 67%

    Depois de amanhã, 28 Agosto, Quarta-feira

    Tempo Temperatura Precipitação Vento Pressão Humidade
    00:00 +21°C° 0 mm 2 m/s 678 mmHg 67%
    01:00 +21°C° 0 mm 1 m/s 678 mmHg 66%
    02:00 +21°C° 0 mm 1 m/s 678 mmHg 65%
    03:00 +21°C° 0 mm 1 m/s 678 mmHg 63%
    04:00 +20°C° 0 mm 1 m/s 678 mmHg 62%
    05:00 +19°C° 0 mm 2 m/s 678 mmHg 60%
    06:00 +21°C° 0 mm 2 m/s 679 mmHg 53%
    07:00 +24°C° 0 mm 2 m/s 679 mmHg 45%
    08:00 +27°C° 0 mm 2 m/s 679 mmHg 38%
    09:00 +28°C° 0 mm 2 m/s 679 mmHg 36%
    10:00 +29°C° 0 mm 3 m/s 679 mmHg 33%
    11:00 +31°C° 0 mm 3 m/s 679 mmHg 31%
    12:00 +33°C° 0 mm 3 m/s 679 mmHg 28%
    13:00 +34°C° 0 mm 4 m/s 679 mmHg 26%
    14:00 +35°C° 0 mm 4 m/s 678 mmHg 23%
    15:00 +34°C° 0 mm 5 m/s 678 mmHg 27%
    16:00 +33°C° 0 mm 5 m/s 678 mmHg 31%
    17:00 +32°C° 0 mm 6 m/s 678 mmHg 35%
    18:00 +29°C° 0 mm 5 m/s 678 mmHg 43%
    19:00 +27°C° 0 mm 4 m/s 678 mmHg 51%
    20:00 +25°C° 0 mm 3 m/s 678 mmHg 58%
    21:00 +24°C° 0 mm 3 m/s 678 mmHg 60%
    22:00 +22°C° 0 mm 3 m/s 678 mmHg 61%
    23:00 +23°C° 0 mm 2 m/s 678 mmHg 62%

    29 Agosto, Quinta-feira

    Tempo Temperatura Precipitação Vento Pressão Humidade
    00:00 +21°C° 0 mm 2 m/s 678 mmHg 64%
    01:00 +20°C° 0 mm 2 m/s 678 mmHg 67%
    02:00 +20°C° 0 mm 2 m/s 678 mmHg 69%
    03:00 +19°C° 0 mm 2 m/s 678 mmHg 73%
    04:00 +19°C° 0 mm 1 m/s 678 mmHg 76%
    05:00 +19°C° 0 mm 1 m/s 678 mmHg 79%
    06:00 +21°C° 0 mm 1 m/s 678 mmHg 67%
    07:00 +23°C° 0 mm 2 m/s 679 mmHg 55%
    08:00 +26°C° 0 mm 2 m/s 679 mmHg 43%
    09:00 +27°C° 0 mm 3 m/s 679 mmHg 39%
    10:00 +29°C° 0 mm 3 m/s 679 mmHg 34%
    11:00 +31°C° 0 mm 3 m/s 679 mmHg 30%
    12:00 +33°C° 0 mm 4 m/s 679 mmHg 27%
    13:00 +34°C° 0 mm 4 m/s 679 mmHg 24%
    14:00 +35°C° 0 mm 4 m/s 679 mmHg 21%
    15:00 +34°C° 0 mm 5 m/s 678 mmHg 25%
    16:00 +33°C° 0 mm 5 m/s 678 mmHg 29%
    17:00 +32°C° 0 mm 6 m/s 678 mmHg 33%
    18:00 +29°C° 0 mm 5 m/s 678 mmHg 42%
    19:00 +26°C° 0 mm 4 m/s 678 mmHg 52%
    20:00 +24°C° 0 mm 3 m/s 678 mmHg 61%
    21:00 +24°C° 0 mm 3 m/s 678 mmHg 63%
    22:00 +22°C° 0 mm 3 m/s 678 mmHg 64%
    23:00 +21°C° 0 mm 3 m/s 678 mmHg 66%

    30 Agosto, Sexta-feira

    Tempo Temperatura Precipitação Vento Pressão Humidade
    00:00 +20°C° 0 mm 2 m/s 678 mmHg 69%
    01:00 +20°C° 0 mm 2 m/s 678 mmHg 72%
    02:00 +20°C° 0 mm 1 m/s 677 mmHg 75%
    03:00 +19°C° 0 mm 1 m/s 677 mmHg 76%
    04:00 +19°C° 0 mm 1 m/s 677 mmHg 77%
    05:00 +18°C° 0 mm 1 m/s 677 mmHg 78%
    06:00 +21°C° 0 mm 1 m/s 678 mmHg 67%
    07:00 +23°C° 0 mm 2 m/s 678 mmHg 56%
    08:00 +26°C° 0 mm 2 m/s 679 mmHg 45%
    09:00 +27°C° 0 mm 3 m/s 679 mmHg 40%
    10:00 +29°C° 0 mm 3 m/s 679 mmHg 35%
    11:00 +31°C° 0 mm 3 m/s 679 mmHg 31%
    12:00 +33°C° 0 mm 3 m/s 679 mmHg 27%
    13:00 +34°C° 0 mm 4 m/s 679 mmHg 24%
    14:00 +35°C° 0 mm 4 m/s 678 mmHg 20%
    15:00 +34°C° 0 mm 4 m/s 678 mmHg 24%
    16:00 +33°C° 0 mm 5 m/s 678 mmHg 27%
    17:00 +32°C° 0 mm 5 m/s 677 mmHg 31%
    18:00 +29°C° 0 mm 4 m/s 677 mmHg 41%
    19:00 +26°C° 0 mm 4 m/s 678 mmHg 51%
    20:00 +24°C° 0 mm 3 m/s 678 mmHg 61%
    21:00 +23°C° 0 mm 2 m/s 677 mmHg 62%
    22:00 +21°C° 0 mm 2 m/s 677 mmHg 63%
    23:00 +21°C° 0 mm 1 m/s 677 mmHg 64%

    31 Agosto, Sábado

    Tempo Temperatura Precipitação Vento Pressão Humidade
    00:00 +20°C° 0 mm 2 m/s 677 mmHg 64%
    01:00 +20°C° 0 mm 2 m/s 677 mmHg 63%
    02:00 +19°C° 0 mm 2 m/s 676 mmHg 63%
    03:00 +20°C° 0 mm 1 m/s 676 mmHg 65%
    04:00 +19°C° 0 mm 1 m/s 676 mmHg 67%
    05:00 +18°C° 0 mm 1 m/s 676 mmHg 69%
    06:00 +21°C° 0 mm 1 m/s 677 mmHg 58%
    07:00 +23°C° 0 mm 1 m/s 678 mmHg 47%
    08:00 +26°C° 0 mm 1 m/s 678 mmHg 36%
    09:00 +28°C° 0 mm 1 m/s 678 mmHg 32%
    10:00 +30°C° 0 mm 2 m/s 678 mmHg 28%
    11:00 +32°C° 0 mm 2 m/s 678 mmHg 24%
    12:00 +34°C° 0 mm 2 m/s 678 mmHg 22%
    13:00 +35°C° 0 mm 2 m/s 678 mmHg 21%
    14:00 +36°C° 0 mm 2 m/s 678 mmHg 19%
    15:00 +35°C° 0 mm 3 m/s 677 mmHg 20%
    16:00 +35°C° 0 mm 4 m/s 677 mmHg 21%
    17:00 +34°C° 0 mm 4 m/s 677 mmHg 22%
    18:00 +30°C° 0 mm 4 m/s 677 mmHg 34%
    19:00 +27°C° 0 mm 3 m/s 677 mmHg 45%
    20:00 +25°C° 0 mm 3 m/s 677 mmHg 56%
    21:00 +24°C° 0 mm 3 m/s 677 mmHg 62%
    22:00 +23°C° 0 mm 2 m/s 677 mmHg 68%
    23:00 +23°C° 0 mm 2 m/s 677 mmHg 75%
    Mostrar mais